RH
71 74 73 69 67 72 72 78 87 88 88 88 89 88 85 83 83 87 87 88 88 88 88 87 87 86 63 31 20 16 53 53 24 19 13 12 16 16 18 16 19 22 29 33 39 35 38
72 74 76 70 72 71 70 76 85 88 88 87 88 89 88 86 85 86 87 87 88 88 88 87 86 88 55 33 15 17 14 13 13 18 15 13 12 15 18 15 22 25 30 35 35 34 35
72 76 80 73 82 81 74 75 82 87 89 88 88 88 87 86 86 86 86 87 89 89 88 85 84 72 54 24 18 18 17 15 14 14 13 12 14 20 23 23 24 28 32 31 35 36 35
73 75 79 86 86 84 71 74 84 88 89 90 89 89 89 89 89 88 87 87 88 88 87 87 85 69 35 20 25 20 19 13 12 14 11 10 17 19 23 24 22 27 32 41 34 32 32
76 76 76 83 78 72 69 72 81 87 90 90 89 90 91 92 91 90 88 87 88 89 87 86 72 53 30 25 21 17 14 13 10 12 13 13 19 25 24 28 29 30 32 34 31 32 36
74 78 80 82 79 68 72 76 81 86 88 89 90 91 92 91 91 91 90 90 87 86 73 63 39 40 22 18 18 15 16 12 12 15 17 19 27 29 33 31 34 31 34 44 32 29 38
72 76 78 80 82 82 81 76 80 87 90 92 92 91 90 91 91 90 94 73 59 52 54 31 29 29 22 21 19 16 12 11 13 16 24 24 24 28 30 32 29 28 29 29 28 23 36
79 80 76 79 79 80 79 82 87 89 91 92 91 91 91 92 92 90 96 61 66 65 73 45 44 40 31 27 28 22 13 15 18 19 24 22 29 23 26 27 28 30 31 30 26 22 34
81 82 79 77 79 79 81 83 87 87 89 91 90 91 92 92 90 84 83 74 65 70 75 52 40 32 28 29 31 26 16 17 18 21 21 21 18 18 22 24 26 27 29 27 25 36 40
83 80 80 80 83 83 83 83 85 86 89 88 89 92 93 93 78 81 78 66 78 72 65 32 42 26 23 22 25 18 12 13 21 16 20 23 19 17 19 21 22 26 20 22 28 41 42
84 82 81 81 86 88 88 88 87 86 88 86 84 92 94 95 96 68 64 67 83 72 55 30 29 17 21 20 20 15 14 14 16 17 19 20 22 23 23 20 20 22 26 28 29 36 39
78 84 82 82 84 87 87 88 88 87 88 81 84 93 96 91 97 77 75 88 71 50 47 29 20 21 23 24 21 16 15 14 15 17 20 17 17 17 16 21 22 25 26 28 36 35 38
82 85 82 83 84 85 86 87 88 87 88 81 85 92 92 88 79 80 90 76 48 63 28 22 24 23 23 24 24 21 21 20 18 22 26 20 17 16 17 22 22 26 27 37 32 38 36
86 85 80 84 85 85 86 88 88 87 81 84 88 92 94 87 82 87 88 74 68 30 33 22 23 22 24 21 23 22 22 30 22 21 23 21 23 20 20 20 20 25 25 40 40 46 37
84 85 85 85 86 86 86 87 88 88 81 89 92 97 97 85 90 93 77 77 62 49 25 27 25 27 26 21 22 24 35 37 30 27 24 30 25 19 18 20 18 29 30 30 37 49 47
84 85 84 78 83 86 86 87 88 90 88 92 98 97 94 83 91 90 79 67 60 40 25 29 34 36 38 33 29 35 37 31 31 31 32 31 29 23 18 18 18 20 21 28 39 35 41
84 85 84 81 78 86 86 86 88 91 94 91 97 89 85 90 74 79 60 73 50 29 26 28 32 36 40 40 36 40 41 31 32 30 30 35 28 23 24 24 25 25 28 33 32 46 41
86 86 83 80 80 86 86 86 88 94 95 93 98 93 91 60 45 89 77 59 45 28 27 25 31 34 35 40 42 41 38 36 31 36 29 32 41 37 31 27 24 24 31 34 42 36 49
86 85 83 83 80 86 86 84 88 95 95 98 98 97 88 67 36 66 56 39 34 28 33 31 32 32 32 34 42 44 43 34 34 32 37 30 46 35 26 30 32 31 30 29 38 45 40
87 85 83 84 82 85 86 83 87 96 93 96 98 98 93 96 78 57 53 38 29 31 35 33 34 34 32 32 33 41 42 39 38 38 60 50 54 41 42 44 41 40 35 34 38 48 47
91 85 83 82 81 83 85 83 87 97 96 96 98 96 81 96 88 81 76 56 37 34 35 32 35 36 36 39 40 50 46 44 38 51 47 49 56 52 50 41 36 38 40 40 40 45 46
92 86 85 82 78 80 86 85 90 98 96 97 98 96 77 62 58 72 72 62 56 39 35 40 38 54 44 49 46 51 47 50 50 39 46 51 50 55 48 38 36 43 42 43 45 47 54
92 87 84 81 76 83 84 84 90 97 90 98 97 96 84 76 61 70 67 58 49 42 41 38 37 55 54 49 47 47 47 45 40 42 47 50 54 57 50 54 44 54 49 46 50 55 56
93 87 84 80 77 77 85 86 94 97 92 98 98 98 91 80 51 53 54 58 50 43 44 60 50 53 47 52 44 42 47 44 44 44 42 51 57 64 59 50 68 48 46 47 55 56 55
92 89 84 82 81 83 86 86 94 97 93 98 96 97 98 90 75 50 52 50 59 64 63 60 57 56 55 47 56 54 61 47 51 49 46 47 64 80 75 70 55 60 56 55 53 64 64
90 89 85 84 84 85 85 88 94 98 95 97 95 91 98 91 92 84 75 55 65 68 67 62 55 59 57 67 61 76 74 61 49 47 46 56 61 65 84 73 72 59 56 52 47 70 65
91 88 85 85 86 84 86 92 96 97 92 90 92 95 98 95 91 91 77 66 63 67 74 72 58 52 62 71 73 78 64 51 53 52 52 63 71 69 83 86 75 61 56 49 46 49 64
90 88 86 87 86 85 89 95 97 96 93 90 92 96 96 96 88 81 80 84 81 73 69 66 66 67 72 64 70 79 73 62 56 50 53 58 71 78 80 82 76 63 56 56 59 76 69
90 86 88 88 85 86 93 96 96 95 95 93 98 93 92 90 84 84 81 81 80 81 86 91 68 84 79 83 86 79 74 81 70 67 66 73 63 77 67 70 72 76 66 68 65 64 73
Wind_Speed
6 7 5 5 6 7 7 7 5 7 8 9 10 11 13 16 16 16 17 18 18 18 17 16 16 17 9 5 11 4 7 5 3 1 4 3 2 4 2 4 3 6 4 3 3 8 4
7 7 8 7 7 7 7 7 6 7 8 9 10 11 12 14 15 16 17 19 19 18 17 16 14 15 2 5 5 3 6 5 4 4 4 5 5 4 3 4 4 4 2 3 4 5 6
8 7 9 7 8 9 7 6 9 7 8 9 10 11 12 14 15 16 18 19 20 20 17 15 12 3 2 18 3 8 6 3 3 5 4 4 3 3 1 4 1 4 4 4 1 5 6
7 7 9 8 11 10 7 8 8 7 8 9 10 11 12 14 16 17 19 21 22 21 17 12 4 2 10 5 4 10 2 7 5 6 6 7 5 4 3 1 7 3 5 1 3 6 3
8 8 5 8 8 5 6 7 7 7 8 9 10 11 12 14 16 18 21 23 25 19 10 4 3 2 12 10 4 8 7 6 4 1 4 2 4 2 4 5 5 6 4 5 6 9 3
9 6 5 6 6 6 6 5 7 7 9 10 11 11 13 15 17 19 23 24 13 5 3 4 3 3 6 4 6 6 4 2 1 4 5 5 6 3 4 4 7 8 4 4 6 5 6
10 7 3 4 5 3 3 5 6 8 9 10 11 12 13 15 17 18 15 6 7 5 4 6 3 5 6 8 6 6 4 4 4 8 2 3 3 7 6 4 3 2 3 6 6 6 6
10 8 6 5 4 5 5 5 6 7 8 9 10 12 13 15 17 20 2 5 3 4 9 8 12 12 13 4 7 7 4 4 4 4 0 6 4 7 3 3 4 3 4 10 10 7 9
11 9 8 6 4 4 5 6 6 8 8 9 10 11 13 16 19 5 3 3 7 3 2 9 7 6 5 9 7 10 2 1 3 3 3 6 7 4 3 4 4 6 5 8 11 3 2
11 10 7 7 5 5 4 6 7 8 8 9 10 11 12 18 3 4 1 8 7 1 4 7 4 9 6 6 6 6 6 4 1 7 4 4 5 5 5 6 7 7 9 10 4 3 4
12 10 9 8 6 5 5 7 7 8 9 9 11 10 11 6 3 1 5 9 7 4 4 1 4 2 4 10 3 3 4 4 5 4 6 9 2 2 4 8 6 9 3 2 3 2 2
12 11 10 8 9 7 6 8 7 8 9 10 10 9 11 4 1 6 7 7 4 6 2 2 4 5 5 1 1 4 3 3 3 4 2 7 3 3 7 3 2 2 4 7 5 3 3
13 13 12 10 8 7 7 7 8 8 9 10 8 7 5 2 3 5 6 4 6 3 4 2 2 3 2 3 1 1 2 0 3 3 3 5 5 5 4 3 3 6 6 5 6 5 6
14 13 11 10 9 8 7 7 8 9 9 9 7 6 3 4 3 6 4 5 1 3 5 5 3 2 4 4 3 3 4 5 5 4 2 2 9 3 2 6 9 4 7 7 4 3 6
16 14 12 11 9 8 7 7 7 8 8 7 7 1 2 4 3 2 5 3 6 4 4 5 4 4 4 3 3 6 4 3 2 5 4 3 5 5 0 2 4 3 2 3 5 1 3
16 15 13 13 10 8 7 7 6 8 3 4 2 2 3 3 5 4 5 4 4 4 6 3 3 2 4 5 3 6 3 3 5 1 2 2 2 2 6 4 5 4 4 3 4 2 4
16 15 14 12 11 9 8 6 5 7 3 1 1 4 3 3 4 6 5 7 5 7 5 2 1 3 1 2 4 4 3 3 2 6 4 2 2 7 4 6 3 6 5 4 4 4 3
17 16 13 12 12 10 8 6 4 4 5 1 1 3 3 4 4 1 3 6 3 5 5 4 3 4 3 4 5 4 3 2 7 2 3 4 3 1 3 5 4 6 2 4 5 5 1
18 16 14 13 11 10 9 7 5 5 9 2 3 2 2 6 3 2 5 3 2 3 4 5 4 3 3 3 6 3 2 2 8 5 2 3 5 3 6 7 7 7 6 3 4 3 2
19 17 15 14 13 11 9 7 7 7 10 1 2 3 3 3 1 3 3 3 3 2 3 2 2 5 5 7 5 4 3 5 5 3 3 5 4 4 5 5 3 4 6 6 5 4 2
20 19 16 15 15 12 9 8 7 10 11 2 0 4 4 4 4 4 3 2 4 2 1 4 5 4 3 3 3 3 3 2 6 9 6 6 4 4 2 2 8 4 6 7 7 3 3
19 20 18 15 14 12 9 7 8 12 10 1 3 2 1 2 2 7 2 4 6 4 4 0 7 2 4 4 2 3 4 2 1 6 5 4 1 2 5 6 10 7 7 7 5 4 3
17 22 18 17 15 14 11 11 10 13 6 3 2 2 2 1 3 6 5 5 5 5 4 3 7 7 7 4 3 3 3 3 5 4 2 3 4 4 4 4 2 7 6 3 3 2 3
17 20 19 19 17 16 12 10 10 14 8 2 0 1 2 2 4 6 4 5 2 4 7 3 6 6 5 2 1 4 7 4 1 2 3 5 4 3 2 5 5 6 2 6 7 3 6
15 21 21 19 19 15 12 11 11 13 12 2 1 1 0 2 1 3 3 4 3 5 6 4 4 0 2 6 5 5 6 5 1 3 4 1 5 4 4 2 2 0 2 2 2 2 3
16 22 21 20 18 16 13 11 11 13 11 3 2 1 2 4 3 3 1 3 5 3 5 3 3 3 7 4 4 4 3 3 3 3 5 5 7 5 2 4 4 4 5 3 4 3 2
19 24 22 20 19 17 13 12 12 12 13 4 3 4 1 3 3 1 2 4 3 3 4 1 3 5 4 3 3 3 3 3 2 5 4 3 3 5 2 2 6 4 5 2 5 6 3
21 22 22 20 19 16 13 13 13 14 12 5 4 4 3 3 3 5 4 2 2 2 6 4 5 5 4 4 3 4 2 3 1 1 2 5 6 3 3 4 2 1 3 5 6 0 2
22 25 22 20 19 16 14 13 14 13 12 6 3 0 2 3 4 2 0 1 2 2 6 3 6 3 4 5 0 3 1 1 1 2 4 2 5 6 5 5 2 3 1 2 3 4 4
Wind_Direction
256 275 279 266 274 272 289 300 304 314 314 314 317 319 320 319 319 315 318 315 314 314 317 318 325 328 348 350 252 292 106 115 140 250 214 225 216 163 210 223 257 193 218 188 131 135 112
247 262 282 275 267 268 265 290 298 302 306 309 312 314 314 314 314 315 314 310 309 310 308 312 323 321 327 277 245 214 0 338 208 169 263 177 213 211 239 241 161 208 150 137 128 148 151
241 257 278 281 286 283 261 270 280 293 302 306 309 310 312 313 314 311 310 309 305 301 301 307 309 282 238 238 276 316 327 245 198 188 254 213 189 166 200 293 164 112 88 19 183 189 180
240 247 268 279 280 268 254 259 274 285 296 303 309 311 312 313 314 312 309 304 299 296 298 296 269 217 251 252 296 289 153 298 247 221 217 247 190 184 172 281 17 101 54 189 254 142 230
232 250 275 289 297 265 259 267 275 289 299 305 309 312 314 314 314 311 308 303 296 295 276 220 145 177 267 301 262 268 174 231 292 231 243 101 70 82 23 87 14 3 233 224 304 196 133
222 225 267 295 317 268 242 260 269 290 305 308 312 317 319 318 317 316 313 300 289 296 114 178 261 8 277 300 301 288 207 182 319 357 17 58 51 80 45 89 218 223 240 267 249 225 179
219 209 225 276 309 323 312 281 299 304 308 309 316 321 321 320 318 320 335 354 11 354 22 214 228 260 293 323 317 336 323 120 97 56 188 6 87 220 228 224 5 196 202 253 258 239 178
211 203 212 241 266 281 292 294 299 307 311 313 317 321 323 322 318 319 302 58 32 258 305 254 250 254 269 81 302 319 354 122 111 190 67 11 254 241 221 209 244 267 276 279 285 252 173
200 211 212 232 242 271 281 291 301 309 316 316 319 323 328 320 316 338 338 72 307 333 255 290 225 240 211 142 218 266 144 21 135 161 175 183 241 41 190 275 245 252 218 255 245 8 348
202 214 218 225 230 244 273 290 301 310 316 315 327 330 332 326 33 328 287 326 322 206 39 274 254 259 181 158 278 233 188 146 37 201 203 232 270 237 268 255 176 259 226 242 210 101 235
199 208 216 227 227 242 263 283 303 311 313 316 325 335 336 345 278 67 310 323 304 61 31 237 212 229 172 153 220 12 213 76 195 200 106 242 270 262 259 235 157 227 163 177 140 193 58
197 209 213 219 228 232 252 277 293 306 308 318 326 337 346 61 303 253 314 311 54 44 282 326 166 180 120 223 284 341 65 73 160 174 203 242 250 208 228 260 188 99 54 37 49 77 6
196 205 207 212 222 233 254 276 290 303 308 325 322 340 334 316 229 331 322 47 42 134 312 296 187 154 137 202 167 137 350 55 183 127 334 318 266 275 198 215 20 73 59 341 344 2 232
195 203 209 201 215 232 251 274 288 302 316 319 321 328 252 236 268 358 25 53 229 250 265 328 1 89 164 179 208 136 73 30 1 58 110 104 324 330 28 207 199 172 149 155 229 227 258
194 195 199 202 208 226 245 267 286 303 315 330 316 329 291 267 206 150 73 88 224 243 279 338 358 38 339 318 148 81 59 13 297 30 175 152 281 302 278 261 132 194 160 179 122 36 43
193 197 201 210 198 222 241 260 283 301 351 347 19 8 282 315 142 61 79 225 252 248 324 53 88 34 39 335 84 76 32 315 322 348 193 353 300 0 294 22 17 92 157 31 11 271 282
195 196 202 211 197 214 237 256 286 300 108 238 14 65 275 76 60 49 156 227 282 287 300 59 61 60 61 16 63 67 346 282 337 320 73 333 98 295 27 15 281 14 13 36 114 132 196
193 196 201 202 186 207 231 249 263 272 160 123 109 88 308 54 60 39 176 203 303 293 326 2 92 71 64 43 54 78 95 358 348 296 47 347 123 18 76 310 22 88 60 110 110 290 107
192 194 195 193 192 198 220 235 234 215 182 136 127 112 348 85 161 244 274 270 274 324 321 357 38 41 35 81 94 100 128 1 356 52 55 353 12 21 358 348 0 45 345 333 101 64 19
195 191 192 191 195 190 214 225 226 198 193 52 112 106 338 49 146 164 198 246 229 242 266 332 74 58 61 32 27 132 114 18 2 56 39 94 59 136 170 227 263 42 3 3 85 73 303
209 193 192 193 194 183 207 219 222 169 192 108 161 233 181 197 243 210 205 219 179 225 186 7 49 36 117 73 55 76 50 77 12 347 36 86 61 36 40 7 76 68 36 30 62 321 98
216 189 188 189 191 186 198 214 207 181 169 86 148 171 3 189 155 147 194 228 199 212 153 0 106 50 95 119 174 157 127 109 182 355 55 18 14 6 7 41 84 72 15 39 50 17 86
214 188 186 187 184 186 195 209 202 180 158 163 253 283 133 194 122 124 215 225 207 162 34 107 136 104 83 149 135 79 84 121 156 126 81 76 105 55 297 12 27 19 341 46 59 23 301
213 188 183 185 184 192 194 204 201 189 176 145 109 99 117 233 159 196 206 202 273 181 135 35 100 108 218 161 143 51 37 19 128 155 122 130 100 88 240 18 39 238 75 111 109 37 17
209 189 183 183 183 183 189 204 200 195 189 89 352 48 179 115 266 188 256 142 65 47 68 84 36 145 105 56 58 32 348 7 342 188 189 98 109 85 118 106 284 183 263 294 193 2 336
205 192 180 181 178 181 187 199 198 196 179 96 286 214 265 119 330 280 298 174 144 107 30 39 19 22 67 78 73 119 208 244 311 75 54 78 76 105 85 115 190 241 287 315 128 341 313
203 185 179 179 178 182 183 193 196 187 161 134 258 174 152 109 311 358 174 176 104 77 104 24 11 33 49 70 88 137 232 210 205 168 161 74 42 134 122 129 289 259 293 20 66 244 227
205 181 176 176 178 178 178 188 195 165 157 134 256 191 153 111 331 4 6 64 43 95 131 212 51 350 47 72 123 206 166 237 35 269 183 148 131 171 97 86 280 55 347 104 213 103 144
204 177 172 173 175 171 175 185 180 157 169 143 276 270 141 109 178 289 26 16 11 255 131 33 147 142 171 90 121 112 131 45 121 190 357 67 173 164 152 207 271 353 118 24 126 145 160